• In Belarus
  • List of Countries
  • For 7 days
  • Water Temperature
  • Satellite Maps
  • Weather Map
  • Weather Widgets
  • user-avatar
    Login

    Hourly Weather Snyatyn

    Today, 17 October, Tuesday

    Time Temperature Precipitation Wind Pressure Humidity
    00:00 +15°C° 0 mm 2 mps 749 mmHg 73%
    01:00 +14°C° 0 mm 2 mps 749 mmHg 75%
    02:00 +14°C° 0 mm 2 mps 749 mmHg 73%
    03:00 +14°C° 0 mm 2 mps 749 mmHg 74%
    04:00 +14°C° 0 mm 2 mps 749 mmHg 75%
    05:00 +13°C° 0 mm 2 mps 749 mmHg 76%
    06:00 +14°C° 0 mm 2 mps 749 mmHg 75%
    07:00 +14°C° 0 mm 2 mps 749 mmHg 74%
    08:00 +15°C° 0 mm 2 mps 749 mmHg 71%
    09:00 +17°C° 0 mm 2 mps 749 mmHg 64%
    10:00 +20°C° 0 mm 3 mps 749 mmHg 57%
    11:00 +22°C° 0 mm 3 mps 749 mmHg 50%
    12:00 +22°C° 0 mm 3 mps 749 mmHg 47%
    13:00 +24°C° 0 mm 3 mps 749 mmHg 45%
    14:00 +25°C° 0 mm 2 mps 748 mmHg 43%
    15:00 +23°C° 0 mm 2 mps 748 mmHg 49%
    16:00 +21°C° 0 mm 2 mps 748 mmHg 55%
    17:00 +21°C° 0 mm 1 mps 747 mmHg 60%
    18:00 +19°C° 0 mm 1 mps 747 mmHg 64%
    19:00 +18°C° 0 mm 1 mps 747 mmHg 68%
    20:00 +16°C° 0 mm 1 mps 748 mmHg 72%
    21:00 +16°C° 0 mm 1 mps 747 mmHg 72%
    22:00 +15°C° 0 mm 1 mps 747 mmHg 73%
    23:00 +15°C° 0 mm 1 mps 747 mmHg 73%

    Tomorrow, 18 October, Wednesday

    Time Temperature Precipitation Wind Pressure Humidity
    00:00 +14°C° 0 mm 1 mps 747 mmHg 72%
    01:00 +14°C° 0 mm 1 mps 747 mmHg 72%
    02:00 +14°C° 0 mm 1 mps 747 mmHg 72%
    03:00 +13°C° 0 mm 1 mps 746 mmHg 71%
    04:00 +13°C° 0 mm 1 mps 746 mmHg 70%
    05:00 +13°C° 0 mm 1 mps 746 mmHg 70%
    06:00 +13°C° 0 mm 1 mps 746 mmHg 68%
    07:00 +14°C° 0 mm 1 mps 745 mmHg 66%
    08:00 +14°C° 0 mm 1 mps 745 mmHg 65%
    09:00 +18°C° 0 mm 1 mps 745 mmHg 57%
    10:00 +21°C° 0 mm 1 mps 745 mmHg 49%
    11:00 +23°C° 0 mm 1 mps 745 mmHg 41%
    12:00 +24°C° 0 mm 1 mps 744 mmHg 39%
    13:00 +25°C° 0 mm 1 mps 744 mmHg 37%
    14:00 +26°C° 0 mm 1 mps 744 mmHg 34%
    15:00 +25°C° 0 mm 1 mps 743 mmHg 40%
    16:00 +23°C° 0 mm 1 mps 743 mmHg 45%
    17:00 +22°C° 0 mm 1 mps 743 mmHg 50%
    18:00 +20°C° 0 mm 1 mps 743 mmHg 52%
    19:00 +19°C° 0 mm 1 mps 743 mmHg 53%
    20:00 +18°C° 0 mm 1 mps 743 mmHg 55%
    21:00 +18°C° 0 mm 1 mps 743 mmHg 56%
    22:00 +16°C° 0 mm 1 mps 743 mmHg 56%
    23:00 +16°C° 0 mm 1 mps 743 mmHg 57%

    Day after tomorrow, 19 October, Thursday

    Time Temperature Precipitation Wind Pressure Humidity
    00:00 +15°C° 0 mm 1 mps 742 mmHg 57%
    01:00 +15°C° 0 mm 1 mps 742 mmHg 57%
    02:00 +15°C° 0 mm 1 mps 742 mmHg 57%
    03:00 +15°C° 0 mm 1 mps 742 mmHg 57%
    04:00 +14°C° 0 mm 1 mps 742 mmHg 58%
    05:00 +14°C° 0 mm 1 mps 741 mmHg 58%
    06:00 +14°C° 0 mm 1 mps 742 mmHg 57%
    07:00 +15°C° 0 mm 1 mps 742 mmHg 57%
    08:00 +15°C° 0 mm 1 mps 742 mmHg 56%
    09:00 +18°C° 0 mm 1 mps 742 mmHg 51%
    10:00 +19°C° 0 mm 0 mps 742 mmHg 45%
    11:00 +21°C° 0 mm 0 mps 742 mmHg 40%
    12:00 +24°C° 0 mm 1 mps 741 mmHg 39%
    13:00 +24°C° 0 mm 1 mps 741 mmHg 37%
    14:00 +25°C° 0 mm 1 mps 741 mmHg 35%
    15:00 +24°C° 0 mm 1 mps 741 mmHg 41%
    16:00 +22°C° 0 mm 1 mps 741 mmHg 46%
    17:00 +21°C° 0 mm 1 mps 741 mmHg 51%
    18:00 +19°C° 0 mm 1 mps 741 mmHg 54%
    19:00 +18°C° 0 mm 1 mps 741 mmHg 56%
    20:00 +16°C° 0 mm 1 mps 741 mmHg 58%
    21:00 +16°C° 0 mm 1 mps 741 mmHg 60%
    22:00 +15°C° 0 mm 1 mps 742 mmHg 62%
    23:00 +15°C° 0 mm 1 mps 742 mmHg 63%

    20 October, Friday

    Time Temperature Precipitation Wind Pressure Humidity
    00:00 +14°C° 0 mm 1 mps 742 mmHg 65%
    01:00 +14°C° 0 mm 1 mps 742 mmHg 67%
    02:00 +13°C° 0 mm 1 mps 742 mmHg 69%
    03:00 +13°C° 0 mm 1 mps 742 mmHg 70%
    04:00 +13°C° 0 mm 1 mps 742 mmHg 71%
    05:00 +12°C° 0 mm 1 mps 742 mmHg 73%
    06:00 +12°C° 0 mm 1 mps 742 mmHg 73%
    07:00 +13°C° 0 mm 1 mps 743 mmHg 72%
    08:00 +13°C° 0 mm 1 mps 743 mmHg 72%
    09:00 +15°C° 0 mm 2 mps 743 mmHg 65%
    10:00 +17°C° 0 mm 2 mps 743 mmHg 59%
    11:00 +19°C° 0 mm 2 mps 743 mmHg 53%
    12:00 +20°C° 0 mm 2 mps 743 mmHg 51%
    13:00 +20°C° 0 mm 2 mps 743 mmHg 49%
    14:00 +21°C° 0 mm 2 mps 743 mmHg 48%
    15:00 +20°C° 0 mm 2 mps 743 mmHg 54%
    16:00 +18°C° 0 mm 2 mps 743 mmHg 60%
    17:00 +18°C° 0 mm 1 mps 743 mmHg 66%
    18:00 +16°C° 0 mm 1 mps 743 mmHg 71%
    19:00 +15°C° 0 mm 1 mps 744 mmHg 76%
    20:00 +14°C° 0 mm 1 mps 744 mmHg 80%
    21:00 +14°C° 0 mm 1 mps 744 mmHg 82%
    22:00 +13°C° 0 mm 1 mps 745 mmHg 83%
    23:00 +13°C° 0 mm 1 mps 745 mmHg 85%

    21 October, Saturday

    Time Temperature Precipitation Wind Pressure Humidity
    00:00 +12°C° 0 mm 1 mps 745 mmHg 86%
    01:00 +12°C° 0 mm 1 mps 745 mmHg 86%
    02:00 +12°C° 0 mm 1 mps 745 mmHg 87%
    03:00 +12°C° 0 mm 1 mps 744 mmHg 87%
    04:00 +11°C° 0 mm 1 mps 744 mmHg 87%
    05:00 +11°C° 0 mm 1 mps 744 mmHg 86%
    06:00 +11°C° 0 mm 1 mps 744 mmHg 84%
    07:00 +12°C° 0 mm 1 mps 744 mmHg 81%
    08:00 +12°C° 0 mm 1 mps 744 mmHg 79%
    09:00 +14°C° 0 mm 1 mps 744 mmHg 70%
    10:00 +16°C° 0 mm 1 mps 744 mmHg 61%
    11:00 +20°C° 0 mm 1 mps 744 mmHg 53%
    12:00 +20°C° 0 mm 1 mps 743 mmHg 49%
    13:00 +21°C° 0 mm 1 mps 743 mmHg 44%
    14:00 +22°C° 0 mm 1 mps 742 mmHg 40%
    15:00 +21°C° 0 mm 1 mps 742 mmHg 44%
    16:00 +19°C° 0 mm 1 mps 742 mmHg 49%
    17:00 +18°C° 0 mm 1 mps 741 mmHg 53%
    18:00 +16°C° 0 mm 1 mps 741 mmHg 55%
    19:00 +16°C° 0 mm 1 mps 741 mmHg 57%
    20:00 +15°C° 0 mm 1 mps 742 mmHg 59%
    21:00 +15°C° 0 mm 2 mps 742 mmHg 61%
    22:00 +14°C° 0 mm 2 mps 742 mmHg 62%
    23:00 +14°C° 0 mm 2 mps 742 mmHg 64%

    22 October, Sunday

    Time Temperature Precipitation Wind Pressure Humidity
    00:00 +14°C° 0 mm 2 mps 742 mmHg 66%
    01:00 +13°C° 0 mm 2 mps 742 mmHg 68%
    02:00 +13°C° 0 mm 2 mps 741 mmHg 70%
    03:00 +13°C° 0 mm 2 mps 742 mmHg 71%
    04:00 +12°C° 0 mm 2 mps 742 mmHg 73%
    05:00 +12°C° 0 mm 2 mps 742 mmHg 75%
    06:00 +12°C° 0.1 mm 2 mps 742 mmHg 75%
    07:00 +13°C° 0.1 mm 2 mps 742 mmHg 76%
    08:00 +13°C° 0.1 mm 2 mps 742 mmHg 77%
    09:00 +14°C° 0.1 mm 2 mps 742 mmHg 74%
    10:00 +15°C° 0.1 mm 2 mps 742 mmHg 72%
    11:00 +16°C° 0.1 mm 2 mps 742 mmHg 70%
    12:00 +17°C° 0 mm 2 mps 742 mmHg 68%
    13:00 +17°C° 0 mm 2 mps 742 mmHg 65%
    14:00 +18°C° 0 mm 2 mps 742 mmHg 63%
    15:00 +17°C° 0 mm 2 mps 742 mmHg 68%
    16:00 +16°C° 0 mm 2 mps 741 mmHg 72%
    17:00 +15°C° 0 mm 2 mps 741 mmHg 76%
    18:00 +14°C° 0 mm 2 mps 742 mmHg 77%
    19:00 +12°C° 0 mm 3 mps 742 mmHg 78%
    20:00 +12°C° 0 mm 3 mps 742 mmHg 79%
    21:00 +11°C° 0 mm 3 mps 742 mmHg 79%
    22:00 +11°C° 0 mm 4 mps 742 mmHg 78%
    23:00 +11°C° 0 mm 4 mps 742 mmHg 78%
    Show more